Meteo pe oră la Bolshie Zavshicy

Astăzi, 8 Mai, Sâmbătă

Timp Temperatura Precipitaţii Vânt Presiune Umiditate
00:00 +5°C° 0 mm 3 m/s 739 mmHg 94%
01:00 +4°C° 0 mm 3 m/s 740 mmHg 95%
02:00 +4°C° 0 mm 3 m/s 740 mmHg 95%
03:00 +4°C° 0 mm 3 m/s 740 mmHg 95%
04:00 +3°C° 0 mm 3 m/s 741 mmHg 95%
05:00 +3°C° 0 mm 3 m/s 741 mmHg 95%
06:00 +3°C° 0 mm 4 m/s 741 mmHg 91%
07:00 +4°C° 0 mm 4 m/s 742 mmHg 87%
08:00 +5°C° 0 mm 5 m/s 742 mmHg 84%
09:00 +5°C° 0 mm 5 m/s 743 mmHg 77%
10:00 +5°C° 0 mm 6 m/s 743 mmHg 71%
11:00 +5°C° 0 mm 6 m/s 744 mmHg 65%
12:00 +5°C° 0 mm 6 m/s 744 mmHg 65%
13:00 +5°C° 0 mm 7 m/s 745 mmHg 65%
14:00 +5°C° 0 mm 7 m/s 745 mmHg 65%
15:00 +7°C° 0 mm 6 m/s 746 mmHg 63%
16:00 +7°C° 0 mm 6 m/s 746 mmHg 61%
17:00 +7°C° 0 mm 5 m/s 746 mmHg 59%
18:00 +6°C° 0 mm 4 m/s 747 mmHg 65%
19:00 +5°C° 0 mm 4 m/s 747 mmHg 72%
20:00 +3°C° 0 mm 3 m/s 748 mmHg 78%
21:00 +3°C° 0 mm 3 m/s 748 mmHg 81%
22:00 +2°C° 0 mm 3 m/s 748 mmHg 84%
23:00 +1°C° 0 mm 3 m/s 749 mmHg 87%

Mâine, 9 Mai, Duminică

Timp Temperatura Precipitaţii Vânt Presiune Umiditate
00:00 +1°C° 0 mm 3 m/s 749 mmHg 88%
01:00 +2°C° 0 mm 2 m/s 749 mmHg 90%
02:00 +2°C° 0 mm 2 m/s 750 mmHg 92%
03:00 +1°C° 0 mm 2 m/s 750 mmHg 93%
04:00 +1°C° 0 mm 2 m/s 751 mmHg 93%
05:00 +1°C° 0 mm 2 m/s 751 mmHg 94%
06:00 +3°C° 0 mm 2 m/s 751 mmHg 87%
07:00 +5°C° 0 mm 2 m/s 752 mmHg 80%
08:00 +7°C° 0 mm 2 m/s 753 mmHg 73%
09:00 +8°C° 0 mm 2 m/s 753 mmHg 67%
10:00 +10°C° 0 mm 2 m/s 753 mmHg 61%
11:00 +12°C° 0 mm 2 m/s 753 mmHg 55%
12:00 +13°C° 0 mm 2 m/s 753 mmHg 51%
13:00 +13°C° 0 mm 2 m/s 753 mmHg 48%
14:00 +14°C° 0 mm 2 m/s 753 mmHg 45%
15:00 +14°C° 0 mm 2 m/s 753 mmHg 46%
16:00 +13°C° 0 mm 3 m/s 753 mmHg 48%
17:00 +13°C° 0 mm 3 m/s 753 mmHg 50%
18:00 +11°C° 0 mm 3 m/s 753 mmHg 56%
19:00 +10°C° 0 mm 2 m/s 753 mmHg 62%
20:00 +8°C° 0 mm 2 m/s 754 mmHg 68%
21:00 +7°C° 0 mm 3 m/s 754 mmHg 68%
22:00 +7°C° 0 mm 3 m/s 754 mmHg 68%
23:00 +5°C° 0 mm 3 m/s 754 mmHg 69%

Poimâine, 10 Mai, Luni

Timp Temperatura Precipitaţii Vânt Presiune Umiditate
00:00 +5°C° 0 mm 3 m/s 754 mmHg 71%
01:00 +4°C° 0 mm 3 m/s 754 mmHg 74%
02:00 +4°C° 0 mm 3 m/s 754 mmHg 77%
03:00 +4°C° 0 mm 3 m/s 754 mmHg 77%
04:00 +4°C° 0 mm 3 m/s 755 mmHg 77%
05:00 +3°C° 0 mm 3 m/s 755 mmHg 77%
06:00 +7°C° 0 mm 3 m/s 755 mmHg 72%
07:00 +9°C° 0 mm 3 m/s 755 mmHg 66%
08:00 +11°C° 0 mm 4 m/s 755 mmHg 61%
09:00 +12°C° 0 mm 4 m/s 755 mmHg 57%
10:00 +14°C° 0 mm 5 m/s 755 mmHg 53%
11:00 +16°C° 0 mm 5 m/s 755 mmHg 49%
12:00 +16°C° 0 mm 5 m/s 755 mmHg 47%
13:00 +17°C° 0 mm 5 m/s 755 mmHg 45%
14:00 +19°C° 0 mm 5 m/s 755 mmHg 44%
15:00 +17°C° 0 mm 5 m/s 754 mmHg 46%
16:00 +18°C° 0 mm 4 m/s 754 mmHg 49%
17:00 +18°C° 0 mm 4 m/s 754 mmHg 52%
18:00 +15°C° 0 mm 4 m/s 754 mmHg 59%
19:00 +13°C° 0 mm 4 m/s 754 mmHg 66%
20:00 +11°C° 0 mm 3 m/s 754 mmHg 72%
21:00 +10°C° 0 mm 3 m/s 754 mmHg 74%
22:00 +9°C° 0 mm 3 m/s 754 mmHg 76%
23:00 +9°C° 0 mm 3 m/s 755 mmHg 78%

11 Mai, Marţi

Timp Temperatura Precipitaţii Vânt Presiune Umiditate
00:00 +8°C° 0 mm 3 m/s 755 mmHg 79%
01:00 +7°C° 0 mm 4 m/s 755 mmHg 81%
02:00 +6°C° 0 mm 4 m/s 755 mmHg 82%
03:00 +6°C° 0 mm 4 m/s 755 mmHg 82%
04:00 +6°C° 0 mm 4 m/s 755 mmHg 83%
05:00 +7°C° 0 mm 3 m/s 755 mmHg 84%
06:00 +8°C° 0 mm 4 m/s 755 mmHg 77%
07:00 +10°C° 0 mm 4 m/s 755 mmHg 70%
08:00 +12°C° 0 mm 5 m/s 755 mmHg 63%
09:00 +14°C° 0 mm 5 m/s 755 mmHg 57%
10:00 +15°C° 0 mm 5 m/s 755 mmHg 51%
11:00 +17°C° 0 mm 5 m/s 755 mmHg 45%
12:00 +17°C° 0 mm 5 m/s 754 mmHg 45%
13:00 +19°C° 0 mm 5 m/s 754 mmHg 44%
14:00 +20°C° 0 mm 5 m/s 754 mmHg 43%
15:00 +19°C° 0 mm 5 m/s 753 mmHg 47%
16:00 +19°C° 0 mm 5 m/s 753 mmHg 50%
17:00 +19°C° 0 mm 5 m/s 753 mmHg 53%
18:00 +17°C° 0 mm 4 m/s 752 mmHg 59%
19:00 +14°C° 0 mm 4 m/s 752 mmHg 66%
20:00 +12°C° 0 mm 3 m/s 752 mmHg 73%
21:00 +11°C° 0 mm 3 m/s 752 mmHg 75%
22:00 +10°C° 0 mm 3 m/s 752 mmHg 78%
23:00 +9°C° 0 mm 3 m/s 752 mmHg 81%

12 Mai, Miercuri

Timp Temperatura Precipitaţii Vânt Presiune Umiditate
00:00 +9°C° 0 mm 3 m/s 752 mmHg 83%
01:00 +9°C° 0 mm 3 m/s 752 mmHg 86%
02:00 +8°C° 0 mm 3 m/s 751 mmHg 88%
03:00 +8°C° 0 mm 3 m/s 751 mmHg 90%
04:00 +8°C° 0 mm 3 m/s 751 mmHg 93%
05:00 +8°C° 0 mm 3 m/s 751 mmHg 95%
06:00 +10°C° 0 mm 3 m/s 751 mmHg 89%
07:00 +12°C° 0 mm 4 m/s 751 mmHg 82%
08:00 +14°C° 0 mm 4 m/s 751 mmHg 76%
09:00 +16°C° 0 mm 5 m/s 750 mmHg 71%
10:00 +17°C° 0 mm 5 m/s 750 mmHg 66%
11:00 +20°C° 0 mm 6 m/s 749 mmHg 61%
12:00 +20°C° 0 mm 6 m/s 749 mmHg 63%
13:00 +20°C° 0 mm 7 m/s 749 mmHg 64%
14:00 +20°C° 0 mm 7 m/s 748 mmHg 66%
15:00 +18°C° 0.1 mm 7 m/s 748 mmHg 69%
16:00 +16°C° 0.1 mm 7 m/s 748 mmHg 72%
17:00 +15°C° 0.1 mm 7 m/s 748 mmHg 75%
18:00 +14°C° 0 mm 6 m/s 748 mmHg 78%
19:00 +12°C° 0 mm 4 m/s 748 mmHg 82%
20:00 +11°C° 0 mm 3 m/s 748 mmHg 85%
21:00 +10°C° 0 mm 3 m/s 748 mmHg 87%
22:00 +9°C° 0 mm 3 m/s 748 mmHg 89%
23:00 +9°C° 0 mm 3 m/s 748 mmHg 91%

13 Mai, Joi

Timp Temperatura Precipitaţii Vânt Presiune Umiditate
00:00 +8°C° 0 mm 3 m/s 748 mmHg 92%
01:00 +8°C° 0 mm 3 m/s 748 mmHg 93%
02:00 +7°C° 0 mm 3 m/s 748 mmHg 95%
03:00 +7°C° 0 mm 3 m/s 747 mmHg 95%
04:00 +7°C° 0 mm 3 m/s 747 mmHg 96%
05:00 +7°C° 0 mm 3 m/s 747 mmHg 96%
06:00 +8°C° 0 mm 4 m/s 746 mmHg 89%
07:00 +11°C° 0 mm 4 m/s 746 mmHg 81%
08:00 +13°C° 0 mm 5 m/s 746 mmHg 74%
09:00 +14°C° 0 mm 4 m/s 745 mmHg 70%
10:00 +15°C° 0 mm 4 m/s 745 mmHg 65%
11:00 +17°C° 0 mm 4 m/s 744 mmHg 60%
12:00 +17°C° 0.3 mm 4 m/s 743 mmHg 63%
13:00 +17°C° 0.3 mm 4 m/s 743 mmHg 66%
14:00 +17°C° 0.3 mm 4 m/s 742 mmHg 69%
15:00 +14°C° 0.7 mm 3 m/s 742 mmHg 76%
16:00 +13°C° 0.7 mm 3 m/s 742 mmHg 84%
17:00 +12°C° 0.7 mm 3 m/s 742 mmHg 91%
18:00 +12°C° 0.7 mm 2 m/s 742 mmHg 92%
19:00 +12°C° 0.7 mm 2 m/s 742 mmHg 93%
20:00 +10°C° 0.7 mm 2 m/s 742 mmHg 93%
21:00 +10°C° 0 mm 2 m/s 742 mmHg 94%
22:00 +9°C° 0 mm 3 m/s 742 mmHg 94%
23:00 +9°C° 0 mm 3 m/s 742 mmHg 95%
Arată mai mult

Formular de consimțământ

Meteoprog și furnizorii noștri de servicii pot stoca și accesa date personale, precum cookies, identificatori de dispozitiv sau alte tehnologii similare pe dispozitivul dumneavoastră și procesa astfel de date pentru a personaliza conținutul și reclamele, dar și pentru a oferi caracteristici de social media și pentru a analiza traficul.

  • Stocarea și/sau accesarea informațiilor pe dispozitivul dumneavoastră

    Cookies, identificatori de dispozitiv sau alte informații pot fi stocate sau accesate pe dispozitiv în scopurile indicate mai sus.

  • Reclame și conținut personalizat, evaluarea reclamelor și a conținutului, informații despre audiențe și dezvoltarea produselor

    Reclamele și conținutul pot fi personalizate pe baza unui profil. Pot fi adăugate date suplimentare pentru a personaliza mai bine reclamele și conținutul. Performanța reclamelor și conținutului poate fi măsurată. Pot fi obținute informații despre utilizatorii care au văzut reclamele și conținutul. Aceste date pot fi utilizate pentru a dezvolta sau îmbunătăți experiența utilizatorilor, sistemele și software-ul.

Dând clic pe ‘Sunt de acord’, permiteți utilizarea cookie-urilor menționate, a identificatorilor de dispozitiv, balizelor web sau altor tehnologii similare. Setările pot fi modificate din browser-ul dispozitivului dumneavoastră.

În anumite scopuri, interesele legitime pot prima asupra consimțământului. Puteți citi mai multe informații în acest sens în Politica privind Confidențialitatea Datelor și Cookie.